TimeHST,TemperatureF,Dew PointF,Humidity,Sea Level PressureIn,VisibilityMPH,Wind Direction,Wind SpeedMPH,Gust SpeedMPH,PrecipitationIn,Events,Conditions,WindDirDegrees,DateUTC
12:54 AM,75.9,68.0,76,30.06,10.0,NE,10.4,-,N/A,,Mostly Cloudy,40,2013-05-24 10:54:00
1:54 AM,75.0,69.1,82,30.05,10.0,NE,10.4,-,N/A,,Clear,50,2013-05-24 11:54:00
2:54 AM,75.0,69.1,82,30.04,10.0,ENE,9.2,-,N/A,,Mostly Cloudy,60,2013-05-24 12:54:00
3:54 AM,75.0,69.1,82,30.04,10.0,NNE,11.5,-,N/A,,Clear,20,2013-05-24 13:54:00
4:54 AM,75.0,69.1,82,30.05,10.0,NNE,11.5,-,N/A,,Clear,30,2013-05-24 14:54:00
5:54 AM,75.0,69.1,82,30.05,10.0,NNE,12.7,-,N/A,,Partly Cloudy,30,2013-05-24 15:54:00
6:54 AM,77.0,69.1,76,30.07,10.0,NE,10.4,-,N/A,,Partly Cloudy,50,2013-05-24 16:54:00
7:54 AM,81.0,68.0,65,30.08,10.0,NE,11.5,23.0,N/A,,Partly Cloudy,50,2013-05-24 17:54:00
8:54 AM,84.0,66.9,56,30.08,10.0,NE,16.1,24.2,N/A,,Partly Cloudy,50,2013-05-24 18:54:00
9:54 AM,86.0,66.9,53,30.08,10.0,NE,18.4,26.5,N/A,,Partly Cloudy,50,2013-05-24 19:54:00
10:54 AM,88.0,69.1,53,30.06,10.0,NE,23.0,29.9,N/A,,Partly Cloudy,40,2013-05-24 20:54:00
11:54 AM,89.1,69.1,52,30.07,10.0,NE,24.2,-,N/A,,Scattered Clouds,40,2013-05-24 21:54:00
12:54 PM,87.1,71.1,59,30.06,10.0,NE,28.8,-,0.00,,Scattered Clouds,40,2013-05-24 22:54:00
1:54 PM,86.0,69.1,57,30.05,10.0,NE,19.6,32.2,N/A,,Scattered Clouds,50,2013-05-24 23:54:00
2:54 PM,87.1,66.9,51,30.04,10.0,NE,21.9,29.9,0.00,,Scattered Clouds,40,2013-05-25 00:54:00
3:54 PM,84.9,69.1,59,30.03,10.0,NE,25.3,-,N/A,,Scattered Clouds,40,2013-05-25 01:54:00
4:54 PM,84.0,70.0,63,30.04,10.0,NE,24.2,-,N/A,,Scattered Clouds,40,2013-05-25 02:54:00
5:54 PM,80.1,69.1,69,30.06,10.0,NE,20.7,-,N/A,,Scattered Clouds,40,2013-05-25 03:54:00
6:54 PM,78.1,69.1,74,30.07,10.0,NE,12.7,21.9,N/A,,Partly Cloudy,50,2013-05-25 04:54:00
7:54 PM,75.9,66.9,74,30.08,10.0,NE,10.4,-,N/A,,Scattered Clouds,50,2013-05-25 05:54:00
8:54 PM,75.9,68.0,76,30.09,10.0,NE,10.4,-,N/A,,Partly Cloudy,50,2013-05-25 06:54:00
9:54 PM,75.9,68.0,76,30.11,10.0,NE,10.4,-,N/A,,Clear,50,2013-05-25 07:54:00
10:54 PM,77.0,69.1,76,30.11,10.0,NE,15.0,19.6,N/A,,Partly Cloudy,50,2013-05-25 08:54:00
11:54 PM,75.0,68.0,79,30.08,10.0,NE,11.5,-,0.00,,Partly Cloudy,40,2013-05-25 09:54:00